Terminal Aerodrome Forecast
Issued by NWS

Home | Current Version | Previous Version | Text Only | Print | Product List | Glossary On
Versions: 1 2 3 4 5 6 7 8 9 10 11 12 13
000
FTAK31 PAJN 250500
TAFAGY
TAF
PAGY 250520Z 2506/2606 VRB03KT P6SM BKN015 OVC060
     FM250900 VRB03KT P6SM VCSH SCT015 BKN050 OVC070
     FM251800 04008KT P6SM SCT050 BKN070
      AMD LTD TO CLD VIS AND WIND=

USA.gov is the U.S. government's official web portal to all federal, state and local government web resources and services.